North Platte, NE

12:23 PM CDT on May 25, 2017 (GMT -0500)
North Platte Regional-Bird

Weather History for KLBF - April, 2012

Change the Weather History Date:

Wednesday, April 11, 2012

  Actual Average Record
Temperature  
Mean Temperature 42 °F 46 °F  
Max Temperature 52 °F 61 °F 87 °F (1916)
Min Temperature 32 °F 31 °F 13 °F (1997)
Degree Days  
Heating Degree Days 23 19  
Month to date heating degree days 162 227  
Since 1 July heating degree days 5346 6092  
Cooling Degree Days 0 0  
Month to date cooling degree days 1 0  
Year to date cooling degree days 8 0  
Moisture  
Dew Point 25 °F    
Average Humidity 50    
Maximum Humidity 63    
Minimum Humidity 36    
Precipitation  
Precipitation 0.00 in 0.07 in 1.23 in (2001)
Month to date precipitation 0.14 0.65  
Year to date precipitation 2.31 2.54  
Snow  
Snow 0.00 in 0.10 in 5.20 in (2001)
Month to date snowfall 0.0 1.6  
Since 1 July snowfall 15.6 26.9  
Snow Depth 0.00 in    
Sea Level Pressure  
Sea Level Pressure 30.19 in    
Wind  
Wind Speed 13 mph (ESE)    
Max Wind Speed 22 mph    
Max Gust Speed 26 mph    
Visibility 10 miles    
Events      
T = Trace of Precipitation, MM = Missing Value Source: NWS Daily Summary

Daily Weather History Graph

Daily Weather History Graph

Search for Another Location

Airport or City:

Trip Planner

Search our weather history database for the weather conditions in past years. The results will help you decide how hot, cold, wet, or windy it might be!

Date:

Astronomy

Apr. 11, 2012 Rise Set
Actual Time 7:08 AM CDT 8:19 PM CDT
Civil Twilight 6:40 AM CDT 8:47 PM CDT
Nautical Twilight 6:06 AM CDT 9:21 PM CDT
Astronomical Twilight 5:31 AM CDT 9:57 PM CDT
Moon 1:18 AM CDT (4/11) 10:56 AM CDT (4/11)
Length of Visible Light 14h 06m
Length of Day
13h 10m
Waning Gibbous, 69% of the Moon is Illuminated
Apr 11
Waning Gibbous
Apr 13
Last Quarter
Apr 21
New
Apr 29
First Quarter
May 5
Full

Hourly Weather History & Observations

Time (CDT) Temp. Windchill Dew Point Humidity Pressure Visibility Wind Dir Wind Speed Gust Speed Precip Events Conditions
12:53 AM 44.1 °F 38.6 °F 30.0 °F 58% 30.22 in 10.0 mi ESE 10.4 mph - N/A   Scattered Clouds
1:53 AM 41.0 °F 34.7 °F 28.0 °F 60% 30.23 in 10.0 mi East 10.4 mph - N/A   Clear
2:53 AM 39.0 °F 31.0 °F 23.0 °F 53% 30.22 in 10.0 mi ESE 13.8 mph - N/A   Clear
3:53 AM 36.0 °F 28.5 °F 21.9 °F 57% 30.23 in 10.0 mi ESE 10.4 mph - N/A   Clear
4:53 AM 33.8 °F 25.8 °F 21.2 °F 60% 30.22 in 10.0 mi ESE 10.4 mph - N/A   Clear
5:53 AM 32.0 °F 24.8 °F 21.0 °F 64% 30.25 in 10.0 mi East 8.1 mph - N/A   Scattered Clouds
6:53 AM 36.0 °F 28.0 °F 19.9 °F 52% 30.25 in 10.0 mi ESE 11.5 mph - N/A   Overcast
7:53 AM 37.0 °F 28.5 °F 19.9 °F 50% 30.26 in 10.0 mi ESE 13.8 mph 23.0 mph N/A   Overcast
8:53 AM 37.0 °F 28.5 °F 19.0 °F 48% 30.28 in 10.0 mi ESE 13.8 mph - N/A   Overcast
9:53 AM 37.9 °F 30.5 °F 19.9 °F 48% 30.28 in 10.0 mi SE 11.5 mph - N/A   Overcast
10:53 AM 39.9 °F 32.1 °F 21.0 °F 47% 30.28 in 10.0 mi ESE 13.8 mph 18.4 mph N/A   Overcast
11:53 AM 42.1 °F 34.9 °F 21.9 °F 45% 30.28 in 10.0 mi ESE 13.8 mph - N/A   Overcast
12:53 PM 46.0 °F 39.9 °F 24.1 °F 42% 30.25 in 10.0 mi ESE 13.8 mph - N/A   Overcast
1:53 PM 48.0 °F - 24.1 °F 39% 30.22 in 10.0 mi SE 17.3 mph 21.9 mph N/A   Overcast
2:53 PM 50.0 °F - 25.0 °F 38% 30.20 in 10.0 mi ESE 17.3 mph 23.0 mph N/A   Overcast
3:53 PM 51.1 °F - 26.1 °F 38% 30.18 in 10.0 mi SE 15.0 mph 23.0 mph N/A   Overcast
4:53 PM 51.1 °F - 27.0 °F 39% 30.14 in 10.0 mi SE 16.1 mph 26.5 mph N/A   Overcast
5:53 PM 52.0 °F - 28.9 °F 41% 30.12 in 10.0 mi SE 11.5 mph 21.9 mph N/A   Overcast
6:53 PM 52.0 °F - 28.9 °F 41% 30.09 in 10.0 mi SE 18.4 mph - N/A   Overcast
7:53 PM 51.1 °F - 28.9 °F 43% 30.09 in 10.0 mi SE 15.0 mph - N/A   Overcast
8:29 PM 51.8 °F - 28.4 °F 41% 30.08 in 10.0 mi SSE 10.4 mph - N/A   Overcast
8:53 PM 50.0 °F - 30.0 °F 46% 30.09 in 10.0 mi SE 9.2 mph 19.6 mph N/A   Overcast
9:53 PM 50.0 °F - 30.0 °F 46% 30.09 in 10.0 mi SSE 13.8 mph 25.3 mph N/A   Overcast
10:53 PM 48.9 °F - 30.9 °F 50% 30.06 in 10.0 mi SE 15.0 mph 21.9 mph N/A   Overcast
11:53 PM 48.0 °F - 30.9 °F 52% 30.04 in 10.0 mi SE 13.8 mph 25.3 mph N/A   Overcast